Location: Bright Sky Observatory
(40.7821°N, 74.2425°W)
Time: 12:50:16
(UTC-04:00)

Amateur Radio Satellites - All Passes

Search period start: 26 March 2017 12:20
Search period end: 27 March 2017 12:20
Location: Bright Sky Observatory, 40.7821°N, 74.2425°W

Satellite Date Start Highest point End Downlink Frequencies (MHz)
Time Altitude Azimuth
Oscar 19 26 Mar 12:20:26 12:23:47 18° 62° (ENE) 12:27:09 437.125/150
POLYITAN 1 26 Mar 12:20:42 12:24:50 46° 261° (W) 12:28:59 437.675
PCSat 26 Mar 12:25:05 12:27:11 12° 322° (NW) 12:29:19 145.827
QB50P2 26 Mar 12:25:29 12:29:28 38° 262° (W) 12:33:29 145.880/145.840
Gurwin Techsat 1B 26 Mar 12:33:17 12:35:59 14° 60° (ENE) 12:38:41 435.225
ESTCUBE 1 26 Mar 12:36:57 12:41:29 84° 284° (WNW) 12:46:00 437.505/2401.250
DUCHIFAT 1 26 Mar 12:38:11 12:42:06 35° 262° (W) 12:46:02 145.980
RS-15 26 Mar 12:39:01 12:50:29 57° 111° (ESE) 13:02:21 29.354- 29.394
50 SAT 26 Mar 12:47:47 12:50:27 20° 95° (E) 12:53:07 437.505
NO-84 26 Mar 12:54:25 12:56:18 15° 27° (NNE) 12:58:14 435.350 FM
BUGSAT 1 26 Mar 12:54:56 12:59:09 70° 259° (WSW) 13:03:24 437.445
SPROUT 26 Mar 13:00:58 13:05:06 45° 99° (E) 13:09:12 437.525
AO-7 26 Mar 13:13:04 13:16:35 13° 45° (NE) 13:20:06 .
DX 1 26 Mar 13:28:39 13:32:50 41° 99° (E) 13:36:59 434.975-435.025
VELOX 1 26 Mar 13:50:50 13:55:05 44° 288° (WNW) 13:59:19 145.980
Oscar 19 26 Mar 13:57:36 14:02:37 58° 259° (W) 14:07:41 437.125/150
ITAMSAT 1 26 Mar 14:06:47 14:10:12 18° 62° (ENE) 14:13:35 435.822/435.867
UKube-1 26 Mar 14:09:06 14:13:27 84° 103° (ESE) 14:17:47 .
Gurwin Techsat 1B 26 Mar 14:09:54 14:15:13 80° 256° (WSW) 14:20:35 435.225
50 SAT 26 Mar 14:20:39 14:23:25 22° 290° (WNW) 14:26:11 437.505
NO-84 26 Mar 14:30:57 14:34:10 82° 224° (SW) 14:37:41 435.350 FM
SPROUT 26 Mar 14:37:59 14:40:37 16° 295° (WNW) 14:43:15 437.525
SO-50 26 Mar 14:49:17 14:53:43 45° 117° (ESE) 14:58:07 436.795
RS-15 26 Mar 14:51:39 15:03:15 50° 315° (NW) 15:15:14 29.354- 29.394
AO-7 26 Mar 14:59:31 15:07:36 58° 65° (ENE) 15:15:41 .
DX 1 26 Mar 15:05:40 15:08:41 18° 295° (WNW) 15:11:42 434.975-435.025
ITAMSAT 1 26 Mar 15:43:58 15:49:08 61° 259° (WSW) 15:54:20 435.822/435.867
BEESAT 26 Mar 15:46:21 15:51:06 65° 102° (ESE) 15:55:49 436.000
ITUPSAT 1 26 Mar 16:02:29 16:07:17 88° 281° (WNW) 16:12:01 437.325
MOZHAYETS 4 26 Mar 16:04:41 16:09:02 42° 98° (E) 16:13:19
SO-50 26 Mar 16:30:38 16:34:22 24° 314° (NW) 16:38:05 436.795
AO-7 26 Mar 16:53:32 17:00:42 32° 264° (W) 17:07:54 .
DOVE 4 26 Mar 16:55:52 16:58:45 16° 62° (ENE) 17:01:44 437.250
CUBESAT XI-V 26 Mar 16:56:53 17:00:44 25° 95° (E) 17:04:34 437.345
RS-15 26 Mar 17:10:32 17:19:53 24° 347° (NNW) 17:29:15 29.354- 29.394
KKS-1 26 Mar 17:23:14 17:27:42 61° 102° (ESE) 17:32:06 437.445
XW-2F 26 Mar 17:23:35 17:26:02 17° 67° (ENE) 17:28:29 145.980 - 146.000
LilacSat-2 26 Mar 17:24:34 17:27:17 19° 68° (ENE) 17:29:59 437.200
YUBILEINY 26 Mar 17:25:14 17:30:31 17° 61° (ENE) 17:35:45 435.215
BEESAT 26 Mar 17:25:48 17:28:19 14° 298° (WNW) 17:30:50 436.000
O/OREOS (USA 219) 26 Mar 17:28:30 17:33:01 82° 292° (WNW) 17:37:36 437.305
CUTE-I 26 Mar 17:33:39 17:38:16 30° 66° (ENE) 17:42:53 437.470
MOZHAYETS 4 26 Mar 17:42:39 17:45:52 19° 294° (WNW) 17:49:04
PCSat 26 Mar 17:43:09 17:46:43 17° 43° (NE) 17:50:17 145.827
ITUPSAT 1 26 Mar 17:43:42 17:44:19 10° 301° (WNW) 17:44:57 437.325
NUDT-PHONESAT 26 Mar 17:48:19 17:51:29 26° 71° (ENE) 17:54:39 437.300
XW-2D 26 Mar 17:48:19 17:51:47 34° 72° (ENE) 17:55:15 145.860 - 145.880
XW-2B 26 Mar 17:54:09 17:57:43 39° 73° (ENE) 18:01:16 145.730 - 145.750
KAITUO 1B 26 Mar 17:55:20 17:58:42 32° 72° (ENE) 18:02:03 145.475/437.950
STARS 26 Mar 17:59:34 18:03:59 66° 102° (ESE) 18:08:22 437.465
XW-2C 26 Mar 18:04:09 18:07:52 53° 75° (ENE) 18:11:35 145.795 - 145.815
M-CUBED/EXP-1 PRIME 26 Mar 18:22:29 18:25:10 15° 96° (E) 18:27:49 437.505
CUTE 1.7 + AOD 2 26 Mar 18:24:33 18:26:00 12° 63° (ENE) 18:27:28 437.475
DOVE 4 26 Mar 18:31:16 18:35:50 58° 260° (W) 18:40:45 437.250
CUBESAT XI-V 26 Mar 18:33:59 18:38:06 32° 291° (WNW) 18:42:13 437.345
HO-68 26 Mar 18:55:19 19:02:02 46° 66° (ENE) 19:08:46 435.675
XW-2F 26 Mar 18:56:28 18:59:55 33° 263° (W) 19:03:22 145.980 - 146.000
LilacSat-2 26 Mar 18:57:58 19:01:21 29° 263° (W) 19:04:45 437.200
KKS-1 26 Mar 19:01:27 19:03:43 14° 298° (WNW) 19:05:59 437.445
UWE-3 26 Mar 19:09:11 19:10:55 12° 62° (ENE) 19:12:39 435.000/436.395/437.385
CUTE-I 26 Mar 19:13:18 19:18:11 35° 263° (W) 19:23:06 437.470
YUBILEINY 26 Mar 19:19:59 19:28:45 83° 82° (E) 19:37:29 435.215
NUDT-PHONESAT 26 Mar 19:22:38 19:25:23 19° 266° (W) 19:28:10 437.300
XW-2D 26 Mar 19:23:45 19:26:05 16° 267° (W) 19:28:25 145.860 - 145.880
PCSat 26 Mar 19:25:21 19:30:49 84° 243° (WSW) 19:36:14 145.827
STRAND 1 26 Mar 19:26:12 19:30:03 21° 93° (E) 19:33:52 437.568
RS-15 26 Mar 19:28:05 19:38:13 28° 23° (NNE) 19:48:06 29.354- 29.394
XW-2B 26 Mar 19:30:05 19:32:04 14° 268° (W) 19:34:03 145.730 - 145.750
KAITUO 1B 26 Mar 19:30:26 19:32:48 16° 267° (W) 19:35:10 145.475/437.950
XW-2A 26 Mar 19:32:49 19:36:16 88° 258° (WSW) 19:39:44 145.665 - 145.685
AAUSAT CUBESAT 2 26 Mar 19:35:32 19:38:41 22° 68° (ENE) 19:41:52 437.432
STARS 26 Mar 19:37:53 19:39:45 13° 298° (WNW) 19:41:37 437.465
CUBEBUG 2 26 Mar 19:39:50 19:44:14 39° 71° (ENE) 19:48:37 437.445
XW-2C 26 Mar 19:42:10 19:42:22 10° 270° (W) 19:42:34 145.795 - 145.815
Oscar 11 26 Mar 19:42:55 19:44:06 11° 62° (ENE) 19:45:17 .
Tancredo 1 26 Mar 19:43:39 19:44:12 10° 129° (SE) 19:44:46 437.200
ZACube-1 26 Mar 19:48:26 19:51:27 18° 66° (ENE) 19:54:26 437.345
SEEDS 26 Mar 19:50:09 19:54:17 68° 75° (ENE) 19:58:25 437.485
M-CUBED/EXP-1 PRIME 26 Mar 19:55:18 19:59:52 60° 291° (WNW) 20:04:27 437.505
CUTE 1.7 + AOD 2 26 Mar 19:57:07 20:01:18 63° 259° (W) 20:05:28 437.475
AO-73 26 Mar 20:15:43 20:19:39 30° 70° (ENE) 20:23:33 145.935
AO-85 26 Mar 20:31:26 20:35:14 27° 115° (ESE) 20:38:50 145.980
UWE-3 26 Mar 20:42:04 20:46:45 76° 258° (WSW) 20:51:23 435.000/436.395/437.385
HO-68 26 Mar 20:43:31 20:49:51 34° 264° (W) 20:56:15 435.675
DELFI C3 26 Mar 20:54:32 20:57:16 18° 67° (ENE) 20:59:59 145.870
STRAND 1 26 Mar 21:04:34 21:09:25 45° 289° (WNW) 21:14:14 437.568
AAUSAT CUBESAT 2 26 Mar 21:10:25 21:13:59 29° 264° (W) 21:17:35 437.432
PCSat 26 Mar 21:12:45 21:13:18 10° 259° (W) 21:13:51 145.827
Oscar 11 26 Mar 21:15:20 21:19:38 72° 258° (WSW) 21:23:57 .
Tancredo 1 26 Mar 21:16:43 21:19:53 79° 326° (NW) 21:23:03 437.200
ISS 26 Mar 21:17:07 21:20:22 89° 287° (WNW) 21:23:40 437.550
CUBEBUG 2 26 Mar 21:17:17 21:20:56 22° 267° (W) 21:24:35 437.445
YUBILEINY 26 Mar 21:18:44 21:24:23 20° 282° (WNW) 21:30:03 435.215
ZACube-1 26 Mar 21:22:59 21:27:22 46° 261° (W) 21:31:42 437.345
RS-15 26 Mar 21:41:19 21:53:39 68° 52° (NE) 22:05:22 29.354- 29.394
AO-73 26 Mar 21:52:04 21:55:50 25° 265° (W) 21:59:34 145.935
AO-85 26 Mar 22:11:41 22:15:33 30° 310° (NW) 22:19:13 145.980
PRISM 26 Mar 22:18:26 22:22:27 46° 99° (E) 22:26:28 437.425
LO-87 26 Mar 22:25:48 22:28:38 22° 70° (ENE) 22:31:31 145.935 - 145.965
DELFI C3 26 Mar 22:28:18 22:31:48 32° 263° (W) 22:35:22 145.870
FO-29 26 Mar 22:40:06 22:44:57 26° 92° (E) 22:49:26 435.910
BEESAT 3 26 Mar 22:47:25 22:51:19 76° 120° (ESE) 22:55:17 437.485
Tancredo 1 26 Mar 22:54:12 22:56:25 17° 343° (NNW) 22:58:39 437.200
ISS 26 Mar 22:54:47 22:57:13 19° 342° (NNW) 22:59:40 437.550
TIGRISAT 26 Mar 23:00:09 23:04:32 64° 101° (E) 23:08:48 435.000
BEESAT 2 26 Mar 23:03:40 23:07:24 42° 117° (ESE) 23:11:12 435.950
UNISAT 6 26 Mar 23:10:22 23:14:48 90° 356° (N) 23:19:08 437.425
VELOX 1 26 Mar 23:13:05 23:15:39 15° 63° (ENE) 23:18:13 145.980
SO-50 26 Mar 23:20:46 23:24:59 38° 51° (NE) 23:29:10 436.795
NANOSAT C BR1 26 Mar 23:35:17 23:36:16 11° 90° (E) 23:37:16 145.865
ESTCUBE 1 26 Mar 23:35:50 23:40:18 85° 79° (ENE) 23:44:49 437.505/2401.250
EO-79 26 Mar 23:39:00 23:41:07 13° 91° (E) 23:43:13 145.935-145.965
SPROUT 26 Mar 23:53:56 23:57:48 33° 70° (ENE) 00:01:41 437.525
RS-15 26 Mar 23:54:45 00:05:17 37° 255° (WSW) 00:15:26 29.354- 29.394
PRISM 26 Mar 23:54:55 23:57:21 15° 296° (WNW) 23:59:46 437.425
LO-87 26 Mar 23:59:13 00:02:01 21° 265° (W) 00:04:50 145.935 - 145.965
POLYITAN 1 27 Mar 00:05:58 00:09:36 27° 96° (E) 00:13:11 437.675
QB50P2 27 Mar 00:10:26 00:14:18 33° 97° (E) 00:18:06 145.880/145.840
DUCHIFAT 1 27 Mar 00:22:11 00:26:02 34° 97° (E) 00:29:51 145.980
DX 1 27 Mar 00:23:48 00:27:44 35° 70° (ENE) 00:31:43 434.975-435.025
FO-29 27 Mar 00:24:39 00:30:16 41° 293° (WNW) 00:35:20 435.910
BEESAT 3 27 Mar 00:27:32 00:29:26 13° 319° (NW) 00:31:19 437.485
Tancredo 1 27 Mar 00:32:13 00:33:32 12° 3° (N) 00:34:52 437.200
ISS 27 Mar 00:33:09 00:34:41 13° 2° (N) 00:36:12 437.550
BUGSAT 1 27 Mar 00:38:03 00:40:46 17° 93° (E) 00:43:26 437.445
AIST 2D 27 Mar 00:38:34 00:42:00 54° 284° (WNW) 00:45:23 435.315
TIGRISAT 27 Mar 00:38:48 00:40:38 12° 298° (WNW) 00:42:27 435.000
BEESAT 2 27 Mar 00:42:27 00:45:22 19° 315° (NW) 00:48:20 435.950
VELOX 1 27 Mar 00:47:21 00:51:38 52° 260° (W) 00:55:59 145.980
50 SAT 27 Mar 00:52:59 00:56:22 61° 259° (W) 00:59:48 437.505
SO-50 27 Mar 01:01:39 01:05:13 24° 248° (WSW) 01:08:47 436.795
UKube-1 27 Mar 01:02:54 01:07:10 67° 74° (ENE) 01:11:28 .
NANOSAT C BR1 27 Mar 01:08:12 01:12:23 62° 286° (WNW) 01:16:31 145.865
EO-79 27 Mar 01:13:03 01:17:10 49° 287° (WNW) 01:21:13 145.935-145.965
SPROUT 27 Mar 01:30:32 01:33:46 21° 266° (W) 01:37:01 437.525
ITUPSAT 1 27 Mar 01:34:27 01:36:18 12° 60° (ENE) 01:38:11 437.325
POLYITAN 1 27 Mar 01:41:50 01:45:16 25° 292° (WNW) 01:48:41 437.675
QB50P2 27 Mar 01:46:42 01:49:52 21° 293° (WNW) 01:53:00 145.880/145.840
DUCHIFAT 1 27 Mar 01:58:24 02:01:28 20° 293° (WNW) 02:04:32 145.980
O/OREOS (USA 219) 27 Mar 02:00:18 02:03:42 20° 56° (NE) 02:07:05 437.305
DX 1 27 Mar 02:00:46 02:04:01 20° 266° (W) 02:07:16 434.975-435.025
Tancredo 1 27 Mar 02:07:55 02:10:33 23° 23° (NNE) 02:13:12 437.200
Oscar 19 27 Mar 02:09:13 02:14:15 50° 100° (E) 02:19:16 437.125/150
ISS 27 Mar 02:09:23 02:12:04 23° 22° (NNE) 02:14:47 437.550
BUGSAT 1 27 Mar 02:12:23 02:16:17 38° 289° (WNW) 02:20:06 437.445
Gurwin Techsat 1B 27 Mar 02:26:31 02:31:33 41° 98° (E) 02:36:33 435.225
UKube-1 27 Mar 02:42:56 02:43:37 10° 270° (W) 02:44:18 .
BEESAT 27 Mar 02:52:11 02:56:57 73° 74° (ENE) 03:01:44 436.000
AO-7 27 Mar 03:03:16 03:08:15 17° 90° (E) 03:13:11 .
MOZHAYETS 4 27 Mar 03:06:07 03:10:23 39° 71° (ENE) 03:14:38
ITUPSAT 1 27 Mar 03:08:40 03:13:28 79° 256° (WSW) 03:18:17 437.325
O/OREOS (USA 219) 27 Mar 03:38:56 03:43:20 44° 254° (WSW) 03:47:41 437.305
Tancredo 1 27 Mar 03:43:44 03:46:53 54° 220° (SW) 03:50:00 437.200
ISS 27 Mar 03:45:30 03:48:46 61° 219° (SW) 03:52:01 437.550
Oscar 19 27 Mar 03:49:26 03:53:12 21° 296° (WNW) 03:56:58 437.125/150
ITAMSAT 1 27 Mar 03:57:04 04:02:06 47° 100° (E) 04:07:04 435.822/435.867
CUBESAT XI-V 27 Mar 04:00:06 04:03:46 24° 67° (ENE) 04:07:27 437.345
Gurwin Techsat 1B 27 Mar 04:06:57 04:11:15 26° 295° (WNW) 04:15:33 435.225
KKS-1 27 Mar 04:20:41 04:25:02 54° 72° (ENE) 04:29:24 437.445
BEESAT 27 Mar 04:33:39 04:35:13 11° 270° (W) 04:36:46 436.000
MOZHAYETS 4 27 Mar 04:44:17 04:47:39 20° 267° (W) 04:51:02
AO-7 27 Mar 04:53:41 05:02:01 88° 105° (ESE) 05:10:20 .
STARS 27 Mar 04:55:31 04:59:50 56° 73° (ENE) 05:04:12 437.465
AO-85 27 Mar 05:02:36 05:05:41 21° 47° (NE) 05:08:48 145.980
M-CUBED/EXP-1 PRIME 27 Mar 05:08:40 05:10:50 15° 58° (ENE) 05:13:05 437.505
CUBESAT XI-V 27 Mar 05:36:51 05:40:58 33° 263° (W) 05:45:08 437.345
ITAMSAT 1 27 Mar 05:37:18 05:41:12 22° 296° (WNW) 05:45:05 435.822/435.867
NO-84 27 Mar 05:52:03 05:52:10 10° 125° (SE) 05:52:17 435.350 FM
CUTE-I 27 Mar 05:53:12 05:54:36 11° 88° (E) 05:56:00 437.470
KKS-1 27 Mar 05:59:33 06:01:54 14° 269° (W) 06:04:15 437.445
YUBILEINY 27 Mar 06:27:39 06:33:10 19° 78° (ENE) 06:38:40 435.215
XW-2F 27 Mar 06:29:00 06:32:00 23° 95° (E) 06:34:59 145.980 - 146.000
DOVE 4 27 Mar 06:30:06 06:35:10 43° 97° (E) 06:40:05 437.250
LilacSat-2 27 Mar 06:31:14 06:34:27 26° 96° (E) 06:37:39 437.200
STARS 27 Mar 06:34:24 06:36:31 13° 269° (W) 06:38:38 437.465
M-CUBED/EXP-1 PRIME 27 Mar 06:41:19 06:44:50 44° 257° (WSW) 06:48:40 437.505
STRAND 1 27 Mar 06:41:36 06:46:04 31° 67° (ENE) 06:50:31 437.568
AO-85 27 Mar 06:42:32 06:46:08 34° 244° (WSW) 06:49:50 145.980
AO-7 27 Mar 06:47:52 06:53:47 22° 308° (NW) 06:59:42 .
NUDT-PHONESAT 27 Mar 06:52:24 06:55:50 36° 98° (E) 06:59:14 437.300
XW-2D 27 Mar 06:54:48 06:58:29 52° 100° (E) 07:02:07 145.860 - 145.880
KAITUO 1B 27 Mar 07:00:19 07:03:54 47° 99° (E) 07:07:27 145.475/437.950
XW-2B 27 Mar 07:00:43 07:04:27 60° 101° (E) 07:08:08 145.730 - 145.750
BEESAT 3 27 Mar 07:04:30 07:08:19 39° 52° (NE) 07:12:06 437.485
XW-2C 27 Mar 07:10:55 07:14:40 85° 103° (ESE) 07:18:24 145.795 - 145.815
BEESAT 2 27 Mar 07:21:39 07:25:06 26° 48° (NE) 07:28:31 435.950
NO-84 27 Mar 07:26:31 07:29:20 51° 321° (NW) 07:32:07 435.350 FM
CUTE-I 27 Mar 07:29:55 07:35:18 87° 286° (WNW) 07:40:38 437.470
SEEDS 27 Mar 07:36:18 07:37:40 11° 90° (E) 07:39:02 437.485
CUTE 1.7 + AOD 2 27 Mar 07:42:42 07:45:59 22° 94° (E) 07:49:15 437.475
XW-2F 27 Mar 08:03:06 08:06:03 22° 291° (WNW) 08:08:59 145.980 - 146.000
LilacSat-2 27 Mar 08:05:47 08:08:34 20° 292° (WNW) 08:11:20 437.200
DOVE 4 27 Mar 08:08:16 08:12:32 25° 294° (WNW) 08:16:44 437.250
HO-68 27 Mar 08:10:20 08:17:16 49° 100° (E) 08:24:08 435.675
YUBILEINY 27 Mar 08:19:59 08:28:45 86° 277° (W) 08:37:32 435.215
STRAND 1 27 Mar 08:20:34 08:25:08 32° 263° (W) 08:29:45 437.568
PCSat 27 Mar 08:27:05 08:29:11 12° 102° (ESE) 08:31:18 145.827
NUDT-PHONESAT 27 Mar 08:27:25 08:29:26 14° 294° (WNW) 08:31:27 437.300
XW-2A 27 Mar 08:27:40 08:31:04 79° 285° (WNW) 08:34:24 145.665 - 145.685
XW-2D 27 Mar 08:31:11 08:32:12 11° 296° (WNW) 08:33:13 145.860 - 145.880
UWE-3 27 Mar 08:32:56 08:36:12 21° 93° (E) 08:39:24 435.000/436.395/437.385
KAITUO 1B 27 Mar 08:36:09 08:37:29 12° 295° (WNW) 08:38:49 145.475/437.950
BEESAT 3 27 Mar 08:42:51 08:45:37 18° 249° (WSW) 08:48:22 437.485
AAUSAT CUBESAT 2 27 Mar 08:52:03 08:55:59 40° 98° (E) 08:59:54 437.432
FO-29 27 Mar 08:52:16 08:56:53 17° 57° (ENE) 09:01:18 435.910
BEESAT 2 27 Mar 08:59:18 09:02:52 30° 246° (WSW) 09:06:24 435.950
Oscar 11 27 Mar 09:03:24 09:06:40 21° 94° (E) 09:09:55 .
CUBEBUG 2 27 Mar 09:07:16 09:11:41 88° 102° (ESE) 09:15:57 437.445
PRISM 27 Mar 09:07:29 09:11:05 31° 70° (ENE) 09:14:43 437.425
SEEDS 27 Mar 09:09:35 09:13:42 57° 285° (WNW) 09:17:48 437.485
ZACube-1 27 Mar 09:11:44 09:15:33 32° 96° (E) 09:19:16 437.345
CUTE-I 27 Mar 09:12:31 09:14:31 12° 302° (WNW) 09:16:31 437.470
CUTE 1.7 + AOD 2 27 Mar 09:18:07 09:21:50 30° 290° (WNW) 09:25:32 437.475
AO-73 27 Mar 09:39:28 09:43:39 62° 101° (E) 09:47:43 145.935
TIGRISAT 27 Mar 09:57:48 10:02:23 55° 73° (ENE) 10:06:56 435.000
HO-68 27 Mar 09:58:30 10:04:43 33° 298° (WNW) 10:10:55 435.675
DELFI C3 27 Mar 10:05:18 10:08:49 29° 96° (E) 10:12:20 145.870
PCSat 27 Mar 10:06:22 10:11:47 85° 302° (WNW) 10:17:15 145.827
UNISAT 6 27 Mar 10:08:05 10:12:47 76° 75° (ENE) 10:17:27 437.425
UWE-3 27 Mar 10:08:54 10:12:42 31° 290° (WNW) 10:16:26 435.000/436.395/437.385
YUBILEINY 27 Mar 10:21:27 10:26:55 18° 299° (WNW) 10:32:24 435.215
AAUSAT CUBESAT 2 27 Mar 10:28:28 10:31:07 17° 294° (WNW) 10:33:46 437.432
EO-79 27 Mar 10:32:29 10:33:36 11° 62° (ENE) 10:34:44 145.935-145.965
FO-29 27 Mar 10:33:05 10:40:56 81° 74° (ENE) 10:48:17 435.910
Oscar 11 27 Mar 10:38:59 10:42:51 33° 289° (WNW) 10:46:42 .
PRISM 27 Mar 10:43:26 10:46:25 20° 266° (W) 10:49:26 437.425
ZACube-1 27 Mar 10:48:29 10:51:37 21° 293° (WNW) 10:54:42 437.345
POLYITAN 1 27 Mar 10:58:28 11:01:43 21° 67° (ENE) 11:04:57 437.675
QB50P2 27 Mar 11:02:49 11:06:20 25° 68° (ENE) 11:09:50 145.880/145.840
AIST 2D 27 Mar 11:12:21 11:15:44 45° 75° (ENE) 11:19:09 435.315
DUCHIFAT 1 27 Mar 11:13:45 11:17:15 25° 68° (ENE) 11:20:44 145.980
AO-73 27 Mar 11:17:51 11:19:18 12° 298° (WNW) 11:20:46 145.935
LO-87 27 Mar 11:25:50 11:29:01 28° 96° (E) 11:32:12 145.935 - 145.965
BUGSAT 1 27 Mar 11:28:23 11:30:16 13° 63° (ENE) 11:32:09 437.445
ESTCUBE 1 27 Mar 11:29:26 11:32:32 18° 93° (E) 11:35:38 437.505/2401.250
TIGRISAT 27 Mar 11:36:39 11:39:20 15° 269° (W) 11:42:03 435.000
DELFI C3 27 Mar 11:40:26 11:43:25 21° 292° (WNW) 11:46:24 145.870
UNISAT 6 27 Mar 11:48:57 11:49:58 11° 271° (W) 11:50:58 437.425
PCSat 27 Mar 11:52:49 11:56:00 16° 319° (NW) 11:59:13 145.827
NANOSAT C BR1 27 Mar 11:59:21 12:03:37 89° 278° (W) 12:07:55 145.865
EO-79 27 Mar 12:04:29 12:08:45 72° 258° (WSW) 12:13:03 145.935-145.965
